Weather in Petushki

Russia / Smolensk Oblast     55°51′09″N   35°08′59″E
temp.,
°C
wind,
m/s
gust,
m/s
humid.,
%
clouds,
%
prec.,
mm/h
press.,
hPa
HPBL,
m
4 march, thu
thu400:00+1w61390100 0.1 1008889
03:00+1w71488100 0.1 1005987
06:00−1w71393100 0.1 1003944
09:000w51193100 0.3 1002742
12:000wnw3795100 1.5 1001527
15:00−1nnw3688100 3.1 1001639
18:00−2w2383100 0.2 100292
21:00−5nw248779 0.2 100381
5 march, fri
fri500:00−6nnw12921 0.0 100421
03:00−7wnw22941 0.0 100524
06:00−6wnw379636 0.1 1006341
09:00−6nnw388240 0.2 1008536
12:00−4nw357241 0.0 1009933
15:00−3nw356855 0.0 10111139
18:00−6wnw228277 0.0 101128
21:00−7w128747 0.0 101421
6 march, sat
sat600:00−8nnw128924 0.0 101421
03:00−8ne369447 0.0 1016245
06:00−9ne3690100 0.3 1016308
09:00−9nne258291 0.4 1018325
12:00−6nnw24670 0.0 10181022
15:00−5w356349 0.1 10181304
18:00−7wsw388095 0.1 1017525
21:00−8wsw4128386 0.1 1015582
7 march, sun
sun700:00−7sw71483100 0.1 1011927
03:00−5sw81691100 1.1 10061191
06:00−5sw91791100 0.6 10001236
09:00−4wsw91792100 2.4 9971267
12:00−2wnw61190100 2.4 9941137
15:00−4wnw71288100 3.6 9941302
18:00−6w4127236 0.2 9961033
21:00−9w397868 0.3 997292
8 march, mon
mon800:00−8w51093100 0.4 9961099
03:00−9w41194100 0.9 999770
06:00−11nw4128695 0.2 1002640
09:00−11nw5108572 0.2 1005684
12:00−8nw4779100 0.1 10071079
15:00−8nw4776100 0.2 10091078
18:00−10nw3887100 0.1 1011593
21:00−11nnw4891100 0.3 1015764